Zurück zum Katalog

PELICAN-8 300F

AktivWissenschaftSSO
NORAD 69018·PAYLOAD·🇺🇸 United States

Gestartet May 3, 2026 von Vandenberg Space Force Base

Loading…

Nächste Überflüge (nächste 24 Stunden)

TLE

AktuellSource: CelesTrak SupGP

Epoche: Sep 14, 2026, 18:45 UTC

1 69018C 26100R   26257.78143519  .00023548  00000+0  88939-3 0  2571
2 69018  97.3177 154.1236 0003810 113.9255 200.6598 15.27042433    12

Verfolge PELICAN-8 300F in Echtzeit mit AllMySat

Download on the App Store